CAPE
0 0 0 0 0 0 0 0 0 0 0 0 0 0 0 0 0 0 0 0 0 0 0 0 0 0 0 0 0 0 0 0 0 0 0 17 58 118 311 390 405 74 0 0
0 0 0 0 0 0 0 0 0 0 0 0 0 0 0 0 0 0 0 0 0 0 0 0 0 0 0 0 0 0 0 0 0 0 3 60 208 449 881 710 385 53 0 0
0 0 0 0 0 0 0 0 0 0 0 0 0 0 0 0 0 0 0 0 0 0 0 0 0 0 0 0 0 0 0 0 2 4 155 381 457 598 738 563 301 3 0 0
0 0 0 0 0 0 0 0 0 0 0 0 0 0 0 0 0 0 0 0 0 0 0 0 0 0 0 0 0 0 0 0 17 55 346 475 923 1164 1105 601 147 47 0 0
0 0 0 0 0 0 0 0 0 0 0 0 0 0 0 0 0 0 0 0 0 0 0 0 0 0 0 0 0 0 0 0 43 110 401 743 1245 1273 664 218 143 2 0 0
0 0 0 0 0 0 0 0 0 0 0 0 0 0 0 0 0 0 0 0 0 0 0 0 0 0 0 0 0 0 0 0 38 158 493 713 1063 952 545 295 171 2 0 0
0 0 0 0 0 0 0 0 0 0 0 0 0 0 0 0 0 0 0 0 0 0 0 0 0 0 0 0 0 0 0 0 14 171 472 764 855 576 497 226 153 6 0 0
0 0 0 0 0 0 0 0 0 0 0 0 0 0 0 0 0 0 0 0 0 0 0 0 0 0 0 0 0 0 0 0 24 154 396 949 938 509 397 233 92 29 0 0
0 0 0 0 0 0 0 0 0 0 0 0 0 0 0 0 0 0 0 0 0 0 0 1 25 0 0 0 0 0 0 3 40 204 534 1034 745 500 386 274 70 0 0 0
0 0 0 0 0 0 0 0 0 0 0 0 0 0 0 0 0 0 0 0 0 0 0 0 0 0 0 0 0 0 8 90 123 345 679 716 711 582 461 299 203 23 0 0
0 0 0 0 0 0 0 0 0 0 0 0 0 0 0 0 0 0 0 0 0 0 0 0 0 12 5 0 0 0 59 260 354 463 624 580 517 577 551 376 214 113 0 0
0 0 0 0 0 0 0 0 0 0 0 0 0 0 0 0 0 0 0 0 0 0 0 0 0 0 317 90 50 56 220 421 535 417 587 477 354 315 389 254 224 19 0 0
0 0 0 0 0 0 0 0 0 0 0 0 0 0 0 0 0 0 0 0 0 0 0 0 0 0 0 111 419 344 579 628 592 477 519 489 335 307 236 192 144 17 0 0
0 0 0 0 0 0 0 0 0 0 0 0 0 0 0 0 0 0 0 0 0 0 0 0 0 0 0 0 234 695 679 724 566 500 656 563 345 284 156 116 62 40 0 1
0 0 0 0 0 0 0 0 0 0 0 0 0 0 0 0 0 0 0 0 0 0 0 0 0 0 0 0 1 402 761 779 476 354 715 702 515 307 201 126 54 32 21 39
0 0 0 0 0 0 0 0 0 0 0 0 0 0 0 0 0 0 0 0 0 0 0 0 0 0 0 0 0 0 494 633 326 331 480 671 557 450 242 119 133 145 30 0
0 0 0 0 0 0 0 0 0 0 0 0 0 0 0 0 0 0 0 0 0 0 0 0 0 0 0 0 0 0 206 482 351 262 402 530 495 462 274 94 65 96 57 3
0 0 0 0 0 0 0 0 0 0 0 0 0 0 0 0 0 0 0 0 0 0 0 0 0 0 0 0 0 0 92 837 448 454 606 685 596 449 236 56 29 14 5 6
0 0 0 0 0 0 0 0 0 0 0 0 0 0 0 0 0 0 0 0 0 0 0 0 0 0 0 0 0 0 0 426 832 435 778 862 725 399 270 103 1 17 33 34
0 0 0 0 0 0 0 0 0 0 0 0 0 0 0 0 0 0 0 0 0 0 0 0 0 0 0 0 0 0 0 0 164 1343 1031 1016 1000 647 444 192 79 79 15 0
0 0 0 0 0 0 0 0 0 0 0 0 0 0 0 0 0 0 0 0 0 0 0 0 0 0 0 0 0 0 0 0 0 1 269 1143 1111 796 578 276 85 9 2 1
0 0 0 0 0 0 0 0 0 0 0 0 0 0 0 0 0 0 0 0 0 0 0 0 0 0 0 0 0 0 0 0 0 0 10 341 1206 927 577 361 89 0 0 1
0 0 0 0 0 0 0 0 0 0 0 0 0 0 0 0 0 0 0 0 0 0 0 0 0 0 0 0 0 0 0 0 0 0 0 2 437 811 452 139 17 0 0 0
0 0 0 0 0 0 0 0 0 0 0 0 0 0 0 0 0 0 0 0 0 0 0 0 0 0 0 0 0 0 0 1 0 0 0 0 0 251 167 41 0 0 0 0
0 0 0 0 0 0 0 0 0 0 0 0 0 0 0 0 0 0 0 0 0 0 0 0 0 0 0 0 0 0 0 0 1 0 0 0 0 0 0 0 1 1 0 0
0 0 0 0 0 0 0 0 0 0 0 0 0 0 0 0 0 0 0 0 0 0 0 0 0 0 0 0 1 3 0 0 0 0 0 0 0 0 0 0 0 0 1 3
CIN
-0 -0 -0 -0 -0 -0 -0 -0 -0 -0 -0 -0 -0 -0 -0 -0 -0 -0 -0 -0 -0 -0 -0 -0 -0 -0 -0 -0 -0 -0 -0 -0 -0 -0 -0 -488 -338 -324 -273 -282 -283 -455 -0 -0
-0 -0 -0 -0 -0 -0 -0 -0 -0 -0 -0 -0 -0 -0 -0 -0 -0 -0 -0 -0 -0 -0 -0 -0 -0 -0 -0 -0 -0 -0 -0 -0 -0 -0 -151 -472 -377 -352 -247 -278 -328 -543 -0 -0
-0 -0 -0 -0 -0 -0 -0 -0 -0 -0 -0 -0 -0 -0 -0 -0 -0 -0 -0 -0 -0 -0 -0 -0 -0 -0 -0 -0 -0 -0 -0 -0 -365 -675 -575 -519 -405 -372 -336 -396 -423 -288 -0 -0
-0 -0 -0 -0 -0 -0 -0 -0 -0 -0 -0 -0 -0 -0 -0 -0 -0 -0 -0 -0 -0 -0 -0 -0 -0 -0 -0 -0 -0 -0 -0 -0 -684 -645 -538 -456 -281 -269 -304 -365 -595 -497 -0 -0
-0 -0 -0 -0 -0 -0 -0 -0 -0 -0 -0 -0 -0 -0 -0 -0 -0 -0 -0 -0 -0 -0 -0 -0 -0 -0 -0 -0 -0 -0 -0 -0 -707 -669 -541 -430 -244 -272 -407 -502 -499 -504 -0 -0
-0 -0 -0 -0 -0 -0 -0 -0 -0 -0 -0 -0 -0 -0 -0 -0 -0 -0 -0 -0 -0 -0 -0 -0 -0 -0 -0 -0 -0 -0 -0 -0 -783 -686 -573 -445 -287 -336 -420 -429 -436 -499 -0 -0
-0 -0 -0 -0 -0 -0 -0 -0 -0 -0 -0 -0 -0 -0 -0 -0 -0 -0 -0 -0 -0 -0 -0 -0 -0 -0 -0 -0 -0 -0 -0 -0 -875 -730 -597 -507 -378 -465 -436 -421 -452 -336 -0 -0
-0 -0 -0 -0 -0 -0 -0 -0 -0 -0 -0 -0 -0 -0 -0 -0 -0 -0 -0 -0 -0 -0 -0 -0 -0 -0 -0 -0 -0 -0 -0 -0 -923 -791 -645 -552 -486 -538 -527 -491 -543 -587 -0 -0
-0 -0 -0 -0 -0 -0 -0 -0 -0 -0 -0 -0 -0 -0 -0 -0 -0 -0 -0 -0 -0 -0 -0 -134 -386 -0 -0 -0 -0 -0 -0 -593 -873 -756 -675 -587 -633 -588 -587 -537 -625 -0 -0 -0
-0 -0 -0 -0 -0 -0 -0 -0 -0 -0 -0 -0 -0 -0 -0 -0 -0 -0 -0 -0 -0 -0 -0 -0 -0 -0 -0 -0 -0 -0 -1005 -918 -852 -780 -687 -709 -654 -617 -607 -587 -573 -619 -0 -0
-0 -0 -0 -0 -0 -0 -0 -0 -0 -0 -0 -0 -0 -0 -0 -0 -0 -0 -0 -0 -0 -0 -0 -0 -0 -499 -296 -0 -0 -0 -851 -856 -834 -804 -730 -779 -738 -624 -604 -573 -558 -558 -0 -0
-0 -0 -0 -0 -0 -0 -0 -0 -0 -0 -0 -0 -0 -0 -0 -0 -0 -0 -0 -0 -0 -0 -0 -0 -0 -0 -609 -618 -756 -672 -727 -741 -761 -859 -770 -774 -729 -679 -618 -626 -605 -539 -0 -0
-0 -0 -0 -0 -0 -0 -0 -0 -0 -0 -0 -0 -0 -0 -0 -0 -0 -0 -0 -0 -0 -0 -0 -0 -0 -0 -0 -720 -650 -655 -647 -651 -724 -817 -757 -735 -737 -700 -695 -707 -697 -734 -0 -0
-0 -0 -0 -0 -0 -0 -0 -0 -0 -0 -0 -0 -0 -0 -0 -0 -0 -0 -0 -0 -0 -0 -0 -0 -0 -0 -0 -0 -710 -594 -577 -621 -666 -760 -724 -700 -765 -744 -803 -833 -814 -757 -0 -259
-0 -0 -0 -0 -0 -0 -0 -0 -0 -0 -0 -0 -0 -0 -0 -0 -0 -0 -0 -0 -0 -0 -0 -0 -0 -0 -0 -0 -155 -670 -574 -544 -661 -729 -606 -669 -734 -798 -810 -856 -878 -809 -825 -802
-0 -0 -0 -0 -0 -0 -0 -0 -0 -0 -0 -0 -0 -0 -0 -0 -0 -0 -0 -0 -0 -0 -0 -0 -0 -0 -0 -0 -0 -0 -610 -584 -678 -676 -605 -539 -607 -738 -820 -847 -813 -745 -795 -0
-0 -0 -0 -0 -0 -0 -0 -0 -0 -0 -0 -0 -0 -0 -0 -0 -0 -0 -0 -0 -0 -0 -0 -0 -0 -0 -0 -0 -0 -0 -639 -582 -659 -707 -634 -579 -618 -573 -731 -822 -768 -704 -734 -0
-0 -0 -0 -0 -0 -0 -0 -0 -0 -0 -0 -0 -0 -0 -0 -0 -0 -0 -0 -0 -0 -0 -0 -0 -0 -0 -0 -0 -0 -0 -658 -425 -569 -604 -576 -557 -584 -599 -571 -655 -766 -721 -0 -172
-0 -0 -0 -0 -0 -0 -0 -0 -0 -0 -0 -0 -0 -0 -0 -0 -0 -0 -0 -0 -0 -0 -0 -0 -0 -0 -0 -0 -0 -0 -0 -417 -381 -511 -476 -473 -461 -445 -522 -556 -32 -578 -643 -530
-0 -0 -0 -0 -0 -0 -0 -0 -0 -0 -0 -0 -0 -0 -0 -0 -0 -0 -0 -0 -0 -0 -0 -0 -0 -0 -0 -0 -0 -0 -0 -0 -430 -236 -350 -330 -323 -415 -439 -505 -504 -488 -389 -0
-0 -0 -0 -0 -0 -0 -0 -0 -0 -0 -0 -0 -0 -0 -0 -0 -0 -0 -0 -0 -0 -0 -0 -0 -0 -0 -0 -0 -0 -0 -0 -0 -0 -24 -438 -244 -288 -314 -357 -398 -423 -301 -0 -0
-0 -0 -0 -0 -0 -0 -0 -0 -0 -0 -0 -0 -0 -0 -0 -0 -0 -0 -0 -0 -0 -0 -0 -0 -0 -0 -0 -0 -0 -0 -0 -0 -0 -0 -298 -300 -141 -206 -269 -294 -341 -0 -0 -0
-0 -0 -0 -0 -0 -0 -0 -0 -0 -0 -0 -0 -0 -0 -0 -0 -0 -0 -0 -0 -0 -0 -0 -0 -0 -0 -0 -0 -0 -0 -0 -0 -0 -0 -0 -26 -218 -132 -248 -367 -481 -0 -0 -0
-0 -0 -0 -0 -0 -0 -0 -0 -0 -0 -0 -0 -0 -0 -0 -0 -0 -0 -0 -0 -0 -0 -0 -0 -0 -0 -0 -0 -0 -0 -0 -0 -0 -0 -0 -0 -0 -150 -232 -388 -0 -0 -0 -0
-0 -0 -0 -0 -0 -0 -0 -0 -0 -0 -0 -0 -0 -0 -0 -0 -0 -0 -0 -0 -0 -0 -0 -0 -0 -0 -0 -0 -0 -54 -0 -0 -0 -0 -0 -0 -0 -0 -0 -0 -0 -0 -0 -0
-0 -0 -0 -0 -0 -0 -0 -0 -0 -0 -0 -0 -0 -0 -0 -0 -0 -0 -0 -0 -0 -0 -0 -0 -0 -0 -0 -0 -38 -136 -26 -0 -0 -0 -0 -0 -0 -0 -0 -0 -0 -0 -0 -0
Wind_Speed
16 17 20 20 15 16 21 24 27 29 23 20 21 14 6 4 4 7 12 15 18 20 16 17 21 21 19 22 24 23 23 24 20 19 19 17 14 8 7 5 7 7 4 7
20 25 21 15 15 17 19 25 30 28 20 18 19 19 15 7 5 10 11 16 19 21 14 17 17 21 25 24 25 25 25 25 25 22 19 15 10 7 8 8 7 6 5 4
16 18 14 16 19 23 21 21 26 28 26 18 22 24 21 19 12 7 8 13 14 20 18 22 20 25 24 29 29 28 27 25 24 23 15 10 10 7 9 9 10 7 4 2
19 21 19 17 20 19 23 18 23 27 22 23 20 32 24 21 20 9 8 12 21 23 17 21 23 31 29 29 29 28 25 25 25 21 19 19 18 12 14 14 10 8 5 3
16 14 14 20 21 16 23 22 26 24 22 24 24 26 25 22 21 18 7 12 19 24 20 22 23 32 37 25 24 30 26 26 25 23 22 23 21 12 5 6 9 8 6 4
11 18 16 17 18 17 24 23 23 23 22 25 25 25 33 24 24 27 22 12 12 13 17 21 23 26 25 22 24 28 29 30 28 27 24 25 23 14 9 8 8 9 8 6
22 19 16 14 22 18 19 22 26 26 26 27 24 26 24 33 30 20 25 24 26 25 17 16 17 19 21 24 27 27 29 33 30 28 27 26 24 19 15 12 10 9 10 10
21 24 16 14 15 20 19 20 21 26 28 35 24 27 28 23 28 24 27 28 32 32 33 27 23 21 22 23 24 26 28 32 28 27 28 25 22 20 17 15 12 11 12 11
17 15 23 25 26 20 20 16 21 24 26 30 28 28 27 22 24 26 29 30 32 34 33 32 29 31 27 23 23 24 24 25 25 26 24 23 23 21 19 17 13 12 11 12
20 29 20 23 22 19 16 16 20 24 27 29 26 26 23 24 29 29 28 32 35 36 36 35 34 34 24 13 16 20 20 21 22 23 24 24 23 22 20 17 15 13 11 11
24 23 26 24 19 23 22 23 24 24 21 24 26 24 18 23 25 28 29 31 34 35 36 37 37 34 30 29 14 11 13 15 16 19 21 22 22 23 20 18 16 14 12 13
25 27 33 29 29 25 23 24 23 22 24 22 24 25 20 22 26 29 30 32 34 34 36 37 36 35 33 29 27 19 12 13 14 16 16 16 18 20 19 17 16 13 13 12
26 24 36 41 31 23 22 22 26 24 23 24 28 26 16 26 30 32 34 35 36 37 37 37 37 37 36 35 32 27 25 12 11 13 15 15 17 20 22 18 15 13 13 12
21 23 24 29 30 28 33 38 34 28 30 32 29 33 35 38 39 39 37 37 37 37 37 38 38 38 39 38 36 30 27 22 15 15 15 17 18 19 19 17 15 14 14 14
24 29 28 28 26 30 36 38 35 33 34 38 40 40 38 38 38 37 36 39 39 39 39 39 40 40 40 39 37 36 28 23 20 20 18 20 18 17 18 17 17 16 17 16
28 31 30 36 32 31 38 35 36 37 39 39 38 37 34 34 35 35 36 39 40 41 42 42 41 41 41 40 39 38 34 27 23 24 22 32 24 20 20 20 19 18 18 16
29 29 33 38 34 35 41 35 33 34 31 34 38 33 34 37 39 37 35 38 40 42 43 43 43 43 43 42 41 40 38 28 24 24 24 26 26 25 24 22 21 21 19 19
28 29 30 36 34 40 28 28 28 27 28 30 31 33 35 37 40 38 32 39 41 42 44 45 45 45 44 44 42 41 39 34 26 25 26 27 26 28 27 27 25 23 21 20
20 25 31 35 35 38 36 32 33 35 34 33 36 36 37 38 39 35 36 40 43 44 45 46 46 46 46 46 45 43 42 37 32 30 30 29 29 28 29 31 31 28 26 26
20 24 28 32 39 41 30 31 34 31 38 35 38 37 41 41 47 43 42 44 46 45 46 48 48 49 47 48 46 45 44 43 39 35 33 32 32 31 31 31 32 33 36 31
29 29 32 33 35 33 30 34 35 36 38 46 40 41 44 45 44 49 49 48 48 50 50 48 47 49 48 47 45 46 45 45 45 45 42 34 31 32 32 31 31 35 36 37
29 31 31 29 30 36 27 34 36 36 45 43 42 48 48 50 52 51 51 50 50 51 50 48 49 49 47 44 44 45 45 45 44 43 45 42 35 31 31 30 28 28 26 39
28 24 26 23 26 28 37 36 37 37 37 38 48 47 45 50 50 51 50 48 49 49 49 47 46 48 48 43 40 42 42 42 42 42 40 40 37 30 27 25 25 26 23 31
23 23 26 32 27 36 41 38 33 37 42 42 41 43 44 47 47 48 47 47 47 47 46 46 46 47 47 44 40 39 37 37 35 35 35 36 35 29 28 25 26 30 32 36
24 27 25 27 32 36 29 34 39 41 41 41 39 37 37 40 40 41 42 41 43 45 44 42 42 45 46 45 42 38 35 33 32 30 29 29 29 25 25 27 27 31 30 39
19 21 25 28 31 33 34 36 40 40 36 27 24 26 26 27 29 32 32 33 35 38 43 43 43 43 44 43 42 40 34 32 31 29 25 21 19 16 14 12 10 17 17 19
Wind_Direction
309 302 295 299 315 309 297 293 291 288 307 314 318 327 327 313 223 229 211 204 193 193 187 184 186 186 184 183 180 178 176 178 171 173 178 181 187 190 191 199 174 158 136 126
296 289 297 313 321 314 308 298 290 294 306 317 319 319 329 329 251 222 224 208 204 205 199 198 193 196 196 193 191 190 189 186 185 184 183 182 188 230 206 191 189 185 167 145
301 302 318 310 306 304 308 309 301 297 305 318 313 311 323 329 327 307 249 229 232 212 214 211 204 202 200 202 198 199 199 196 196 194 185 171 171 288 267 199 186 180 186 200
303 296 296 303 303 312 303 324 316 309 310 304 319 303 317 323 321 317 251 233 215 222 231 220 218 214 210 208 206 207 206 205 204 199 198 196 194 191 189 195 194 191 187 232
316 315 311 305 301 318 305 318 313 315 310 309 310 308 313 320 316 320 290 233 232 230 246 233 230 222 220 216 219 214 216 215 211 210 209 204 205 210 234 209 206 207 219 265
327 313 313 310 309 317 309 313 314 314 314 308 313 314 307 320 314 308 310 307 292 256 237 236 234 231 235 235 228 220 219 219 217 215 215 212 211 217 238 233 225 229 238 246
316 324 321 310 304 316 319 314 311 309 306 306 317 314 315 314 319 315 312 312 311 311 294 271 256 245 240 235 228 227 223 221 220 219 220 217 216 220 229 233 234 239 235 244
320 308 334 351 330 318 321 316 311 308 308 304 319 313 313 322 320 321 318 317 309 311 303 295 285 273 261 244 239 233 227 222 223 223 220 220 222 228 239 239 240 242 233 243
327 328 305 307 304 314 316 316 315 311 311 309 313 315 314 320 322 322 316 321 321 322 321 312 310 301 283 263 249 236 237 244 241 231 230 226 227 232 240 242 251 250 241 242
319 302 321 317 321 324 313 321 313 312 310 310 314 314 317 317 314 323 322 321 320 321 320 320 318 312 315 290 272 265 254 246 240 236 233 232 230 235 243 244 244 244 242 233
316 311 305 315 323 315 315 310 308 309 309 307 310 314 325 321 322 319 321 326 322 320 321 319 315 318 311 295 300 278 259 247 231 233 234 239 233 235 240 240 240 240 239 227
318 307 297 301 302 308 313 312 315 306 308 308 309 307 317 321 319 318 319 320 325 326 323 323 320 317 311 309 296 294 273 252 247 246 234 234 235 232 224 231 235 236 228 223
320 317 302 286 300 310 309 314 313 314 312 301 302 310 318 319 317 316 314 315 318 320 321 323 324 322 313 304 298 292 287 273 257 240 226 221 213 210 207 214 226 232 228 226
329 318 311 304 305 307 300 297 303 305 301 302 297 302 303 307 307 309 311 313 314 316 318 317 317 321 322 312 298 294 287 283 271 254 227 230 222 223 227 228 223 222 217 215
324 310 310 307 307 307 303 300 300 297 297 295 299 298 302 304 306 309 312 312 313 313 313 314 315 314 316 319 311 297 291 281 273 264 247 231 241 229 228 229 220 214 210 211
316 310 310 304 306 305 301 301 298 296 296 294 297 297 307 307 310 310 310 312 312 312 311 311 311 312 313 314 315 312 297 286 274 266 253 267 260 238 232 231 227 226 227 228
310 310 310 304 309 308 303 306 302 302 307 303 299 304 310 307 308 311 311 315 312 310 311 311 309 308 308 308 309 309 311 296 279 268 259 259 260 249 242 239 239 241 236 242
306 308 308 306 310 302 311 322 320 315 315 315 311 311 313 310 307 308 312 314 312 311 309 309 309 307 306 305 304 304 304 303 289 279 270 265 257 254 255 252 242 238 236 232
309 310 307 305 304 305 305 312 315 311 306 317 312 311 312 312 310 310 311 314 311 310 309 306 307 307 304 303 301 300 298 304 299 288 279 273 266 263 258 254 252 244 230 223
322 317 309 308 305 304 312 317 317 314 299 319 318 313 312 313 303 305 310 309 308 308 307 306 304 302 304 302 300 297 295 293 296 294 288 281 273 268 261 256 252 247 245 229
314 314 308 308 307 309 318 320 321 304 306 312 316 313 311 308 307 307 307 306 307 306 305 306 306 303 300 302 300 296 295 293 290 290 288 286 277 272 267 261 260 261 270 248
314 314 312 314 313 311 327 324 318 314 311 313 314 312 309 308 307 307 307 307 307 307 304 304 302 302 302 302 300 297 296 295 295 293 289 287 283 278 274 267 268 272 268 268
314 318 317 317 315 318 319 319 319 319 318 318 314 314 315 312 311 310 309 309 309 308 306 306 304 302 300 300 302 300 299 299 298 296 294 291 287 278 273 267 265 266 261 268
323 325 319 318 322 318 316 320 324 323 319 319 318 316 316 314 314 313 312 311 310 310 308 307 304 302 300 298 298 301 303 304 304 302 300 298 290 281 273 266 260 257 258 260
320 324 324 322 323 326 331 327 326 324 324 323 322 320 318 317 315 315 314 313 311 310 310 309 308 304 298 296 294 297 299 307 308 309 309 309 303 292 287 287 278 276 258 225
335 332 329 327 330 329 328 331 328 327 327 318 301 295 309 309 301 309 307 311 312 311 309 306 305 305 300 297 292 291 296 301 304 309 316 321 324 321 310 310 296 271 237 214